Date String (YYYY-MM-DD hh:mm:ss) UTC,Instrument flags,Ambient pressure (hPa),Sample flow (lpm),Bypass flow (lpm),Sample temperature (°C),Ambient temperature (°C),ASC tube jacket temperature (°C),LED temperature (°C),Box temperature (°C),Sample RH (%),Span deviation,Mass concentration (μg/m³),Mass concentration (μg/m³),Mass concentration (μg/m³)
DateTimeUTC,F1_M11,P_M11,Q1_M11,Q2_M11,T1_M11,T2_M11,T3_M11,T4_M11,T5_M11,U1_M11,ZSPAN_M11,X2_M11,X0_M11,X1_M11
2021-10-16 09:00:00,,0833.5,5.00,0.00,25.9,24.9,00.0,35.1,27.7,09.0,0000.0,0002.62,0004.41,0001.94
2021-10-16 09:01:00,,0833.6,5.00,0.00,25.9,24.9,00.0,35.1,27.7,09.0,0000.0,0002.61,0004.30,0001.94
2021-10-16 09:02:00,,0833.5,5.00,0.00,25.9,24.9,00.0,35.1,27.7,09.0,0000.0,0002.61,0004.31,0001.93
2021-10-16 09:03:00,,0833.6,4.99,0.00,25.9,24.9,00.0,35.1,27.7,09.0,0000.0,0002.64,0004.70,0001.92
2021-10-16 09:04:00,,0833.5,5.01,0.00,25.9,24.9,00.0,35.1,27.7,09.0,0000.0,0002.65,0004.71,0001.91
2021-10-16 09:05:00,,0833.5,5.01,0.00,25.9,24.9,00.0,35.1,27.7,09.0,0000.0,0002.65,0004.73,0001.92
2021-10-16 09:06:00,,0833.5,4.99,0.00,25.9,24.9,00.0,35.0,27.7,09.0,0000.0,0002.65,0004.78,0001.93
2021-10-16 09:07:00,,0833.5,5.00,0.00,25.9,24.8,00.0,35.0,27.6,09.0,0000.0,0002.66,0005.20,0001.92
2021-10-16 09:08:00,,0833.5,5.00,0.00,25.9,24.8,00.0,35.0,27.6,09.0,0000.0,0002.69,0005.21,0001.92
2021-10-16 09:09:00,,0833.5,5.00,0.00,25.8,24.8,00.0,35.0,27.6,09.0,0000.0,0002.76,0005.41,0001.94
2021-10-16 09:10:00,,0833.4,5.00,0.00,25.8,24.8,00.0,35.0,27.6,09.0,0000.0,0002.72,0005.52,0001.94
2021-10-16 09:11:00,,0833.4,5.00,0.00,25.8,24.8,00.0,35.0,27.6,09.0,0000.0,0002.72,0005.83,0001.93
2021-10-16 09:12:00,,0833.4,5.00,0.00,25.8,24.8,00.0,35.0,27.6,09.0,0000.0,0002.69,0005.71,0001.93
2021-10-16 09:13:00,,0833.4,5.01,0.00,25.8,24.8,00.0,35.0,27.6,09.0,0000.0,0002.68,0005.68,0001.92
2021-10-16 09:14:00,,0833.4,4.98,0.00,25.8,24.8,00.0,35.0,27.6,09.0,0000.0,0002.69,0005.42,0001.92
2021-10-16 09:15:00,,0833.5,5.01,0.00,25.8,24.8,00.0,35.0,27.6,09.0,0000.0,0002.74,0005.50,0001.92
2021-10-16 09:16:00,,0833.5,4.99,0.00,25.8,24.8,00.0,34.9,27.5,08.9,0000.0,0002.79,0005.63,0001.91
2021-10-16 09:17:00,,0833.5,4.99,0.00,25.8,24.8,00.0,34.9,27.5,08.9,0000.0,0002.83,0005.84,0001.91
2021-10-16 09:18:00,,0833.6,5.01,0.00,25.8,24.8,00.0,34.9,27.5,08.9,0000.0,0002.88,0006.16,0001.91
2021-10-16 09:19:00,,0833.5,5.00,0.00,25.8,24.8,00.0,34.9,27.5,08.9,0000.0,0002.89,0006.97,0001.93
2021-10-16 09:20:00,,0833.5,4.99,0.00,25.8,24.8,00.0,34.9,27.5,09.0,0000.0,0002.86,0006.78,0001.92
2021-10-16 09:21:00,,0833.5,5.00,0.00,25.8,24.7,00.0,34.9,27.5,09.0,0000.0,0002.87,0006.52,0001.93
2021-10-16 09:22:00,,0833.6,5.01,0.00,25.8,24.7,00.0,34.9,27.5,09.0,0000.0,0002.80,0006.05,0001.93
2021-10-16 09:23:00,,0833.6,5.00,0.00,25.7,24.8,00.0,34.9,27.5,09.0,0000.0,0002.79,0006.00,0001.93
2021-10-16 09:24:00,,0833.6,4.99,0.00,25.7,24.8,00.0,34.9,27.5,09.0,0000.0,0002.82,0006.12,0001.93
2021-10-16 09:25:00,,0833.6,4.99,0.00,25.7,24.8,00.0,34.9,27.5,09.0,0000.0,0002.82,0006.07,0001.94
2021-10-16 09:26:00,,0833.6,5.01,0.00,25.7,24.7,00.0,34.9,27.5,09.0,0000.0,0002.77,0005.97,0001.95
2021-10-16 09:27:00,,0833.6,5.01,0.00,25.7,24.7,00.0,34.9,27.5,08.9,0000.0,0002.75,0006.90,0001.96
2021-10-16 09:28:00,,0833.6,5.00,0.00,25.7,24.7,00.0,34.9,27.5,09.0,0000.0,0002.69,0006.66,0001.94
2021-10-16 09:29:00,,0833.6,4.99,0.00,25.7,24.7,00.0,34.9,27.5,09.0,0000.0,0002.65,0005.99,0001.94
2021-10-16 09:30:00,,0833.6,5.00,0.00,25.7,24.7,00.0,34.9,27.5,09.0,0000.0,0002.66,0005.19,0001.92
2021-10-16 09:31:00,,0833.6,5.01,0.00,25.7,24.7,00.0,34.9,27.4,09.0,0000.0,0002.62,0005.10,0001.92
2021-10-16 09:32:00,,0833.7,5.00,0.00,25.7,24.7,00.0,34.9,27.4,09.0,0000.0,0002.61,0005.27,0001.93
2021-10-16 09:33:00,,0833.6,5.01,0.00,25.7,24.7,00.0,34.8,27.4,09.0,0000.0,0002.67,0005.94,0001.93
2021-10-16 09:34:00,,0833.6,5.00,0.00,25.6,24.7,00.0,34.8,27.4,09.0,0000.0,0002.65,0006.05,0001.93
2021-10-16 09:35:00,,0833.6,5.00,0.00,25.7,24.6,00.0,34.8,27.4,09.0,0000.0,0002.62,0005.91,0001.92
2021-10-16 09:36:00,,0833.6,5.00,0.00,25.6,24.7,00.0,34.8,27.4,09.0,0000.0,0002.61,0005.94,0001.91
2021-10-16 09:37:00,,0833.6,5.01,0.00,25.6,24.7,00.0,34.8,27.4,09.0,0000.0,0002.62,0005.81,0001.90
2021-10-16 09:38:00,,0833.6,5.00,0.00,25.6,24.6,00.0,34.8,27.4,09.0,0000.0,0002.61,0004.90,0001.90
2021-10-16 09:39:00,,0833.6,4.99,0.00,25.6,24.6,00.0,34.8,27.4,09.0,0000.0,0002.63,0004.95,0001.91
2021-10-16 09:40:00,,0833.6,5.01,0.00,25.6,24.6,00.0,34.8,27.4,09.0,0000.0,0002.64,0004.95,0001.92
2021-10-16 09:41:00,,0833.6,4.98,0.00,25.6,24.6,00.0,34.8,27.4,09.0,0000.0,0002.60,0004.90,0001.91
2021-10-16 09:42:00,,0833.6,5.00,0.00,25.6,24.6,00.0,34.8,27.4,09.0,0000.0,0002.66,0005.22,0001.89
2021-10-16 09:43:00,,0833.6,4.99,0.00,25.6,24.6,00.0,34.8,27.4,09.0,0000.0,0002.68,0005.27,0001.88
2021-10-16 09:44:00,,0833.6,5.00,0.00,25.6,24.6,00.0,34.8,27.4,09.0,0000.0,0002.67,0004.71,0001.88
2021-10-16 09:45:00,,0833.6,5.00,0.00,25.6,24.6,00.0,34.8,27.4,09.0,0000.0,0002.65,0004.57,0001.87
2021-10-16 09:46:00,,0833.7,4.99,0.00,25.6,24.6,00.0,34.7,27.4,09.0,0000.0,0002.66,0004.68,0001.87
2021-10-16 09:47:00,,0833.6,5.00,0.00,25.6,24.6,00.0,34.7,27.3,09.0,0000.0,0002.64,0004.63,0001.87
2021-10-16 09:48:00,,0833.6,5.00,0.00,25.6,24.5,00.0,34.7,27.3,09.0,0000.0,0002.63,0004.66,0001.85
2021-10-16 09:49:00,,0833.6,4.99,0.00,25.6,24.5,00.0,34.7,27.3,09.0,0000.0,0002.65,0004.77,0001.82
2021-10-16 09:50:00,,0833.6,5.01,0.00,25.6,24.5,00.0,34.7,27.3,09.1,0000.0,0002.69,0004.84,0001.83
2021-10-16 09:51:00,,0833.6,5.00,0.00,25.5,24.5,00.0,34.7,27.3,09.0,0000.0,0002.72,0004.96,0001.83
2021-10-16 09:52:00,,0833.6,5.00,0.00,25.5,24.5,00.0,34.7,27.2,09.0,0000.0,0002.73,0005.35,0001.83
2021-10-16 09:53:00,,0833.6,5.00,0.00,25.5,24.5,00.0,34.7,27.3,09.0,0000.0,0002.68,0005.09,0001.84
2021-10-16 09:54:00,,0833.6,5.01,0.00,25.5,24.5,00.0,34.7,27.3,09.0,0000.0,0002.64,0004.92,0001.84
2021-10-16 09:55:00,,0833.6,4.99,0.00,25.5,24.5,00.0,34.7,27.2,09.0,0000.0,0002.63,0004.86,0001.83
2021-10-16 09:56:00,,0833.6,5.01,0.00,25.5,24.5,00.0,34.7,27.2,09.0,0000.0,0002.63,0004.87,0001.84
2021-10-16 09:57:00,,0833.6,5.00,0.00,25.5,24.4,00.0,34.7,27.2,09.0,0000.0,0002.68,0004.94,0001.85
2021-10-16 09:58:00,,0833.6,4.98,0.00,25.5,24.4,00.0,34.6,27.2,09.0,0000.0,0002.71,0004.93,0001.87
2021-10-16 09:59:00,,0833.6,5.00,0.00,25.4,24.4,00.0,34.6,27.2,09.0,0000.0,0002.75,0005.33,0001.89
